Change the Weather History Date:

Wednesday, January 16, 2013

  Actual Average Record
Temperature  
Mean Temperature 43 °F 35 °F  
Max Temperature 47 °F 44 °F 69 °F (1953)
Min Temperature 39 °F 26 °F 2 °F (1982)
Degree Days  
Heating Degree Days 22 30  
Month to date heating degree days 337 475  
Since 1 July heating degree days 1636 2099  
Cooling Degree Days 0 0  
Month to date cooling degree days 0 0  
Year to date cooling degree days 0 0  
Moisture  
Dew Point 39 °F    
Average Humidity 87    
Maximum Humidity 92    
Minimum Humidity 82    
Precipitation  
Precipitation 0.36 in 0.12 in 0.65 in (1997)
Month to date precipitation 1.46 1.82  
Year to date precipitation 1.46 1.82  
Snow  
Snow 0.00 in 0.10 in 4.00 in (1965)
Month to date snowfall T 1.3  
Since 1 July snowfall T 3.1  
Snow Depth 0.00 in    
Sea Level Pressure  
Sea Level Pressure 30.00 in    
Wind  
Wind Speed 6 mph (West)    
Max Wind Speed 20 mph    
Max Gust Speed 24 mph    
Visibility 6 miles    
Events Rain    
T = Trace of Precipitation, MM = Missing Value Source: NWS Daily Summary

Daily Weather History Graph

Daily Weather History Graph

Search for Another Location

Airport or City:

Trip Planner

Search our weather history database for the weather conditions in past years. The results will help you decide how hot, cold, wet, or windy it might be!

Date:

Astronomy

Jan. 16, 2013 Rise Set
Actual Time 7:17 AM EST 5:06 PM EST
Civil Twilight 6:48 AM EST 5:35 PM EST
Nautical Twilight 6:15 AM EST 6:08 PM EST
Astronomical Twilight 5:44 AM EST 6:39 PM EST
Moon 9:57 AM EST (1/16) 10:50 PM EST (1/16)
Length of Visible Light 10h 47m
Length of Day
9h 49m
Waxing Crescent, 28% of the Moon is Illuminated
Jan 16
Waxing Crescent
Jan 18
First Quarter
Jan 26
Full
Feb 3
Last Quarter
Feb 10
New

Hourly Weather History & Observations

Time (EST) Temp. Windchill Dew Point Humidity Pressure Visibility Wind Dir Wind Speed Gust Speed Precip Events Conditions
12:33 AM 41.0 °F 35.8 °F 37.4 °F 87% 30.10 in 3.0 mi NNE 8.1 mph - 0.00 in   Overcast
1:54 AM 41.0 °F 37.1 °F 37.0 °F 86% 30.07 in 2.5 mi ENE 5.8 mph - 0.03 in   Overcast
2:31 AM 41.0 °F 39.0 °F 37.4 °F 87% 30.06 in 1.8 mi North 3.5 mph - 0.01 in Rain Light Rain
2:54 AM 41.0 °F 39.0 °F 37.9 °F 89% 30.06 in 1.8 mi NNW 3.5 mph - 0.06 in Rain Rain
3:05 AM 41.0 °F 39.0 °F 37.4 °F 87% 30.05 in 2.5 mi North 3.5 mph - 0.02 in Rain Light Rain
3:54 AM 41.0 °F 35.8 °F 37.9 °F 89% 30.06 in 4.0 mi NW 8.1 mph - 0.03 in Rain Light Rain
4:54 AM 39.9 °F 34.5 °F 36.0 °F 86% 30.04 in 4.0 mi North 8.1 mph - 0.02 in Rain Light Rain
5:07 AM 39.2 °F 33.0 °F 35.6 °F 87% 30.03 in 4.0 mi North 9.2 mph - N/A   Overcast
5:54 AM 39.0 °F 34.8 °F 36.0 °F 89% 30.01 in 4.0 mi NNE 5.8 mph - 0.01 in Rain Light Rain
7:54 AM 39.9 °F 37.8 °F 36.0 °F 86% 30.05 in 8.0 mi North 3.5 mph - 0.01 in Rain Light Rain
8:54 AM 39.9 °F 35.8 °F 36.0 °F 86% 30.02 in 7.0 mi ENE 5.8 mph - 0.00 in   Overcast
9:44 AM 41.0 °F - 37.4 °F 87% 30.02 in 4.0 mi Calm Calm - 0.01 in Rain Light Rain
9:54 AM 41.0 °F - 37.0 °F 86% 30.03 in 7.0 mi Calm Calm - 0.01 in   Overcast
10:21 AM 41.0 °F 39.0 °F 37.4 °F 87% 30.03 in 2.5 mi West 3.5 mph - 0.01 in Rain Light Rain
10:38 AM 41.0 °F - 37.4 °F 87% 30.02 in 2.0 mi Calm Calm - 0.02 in Rain Light Rain
10:44 AM 41.0 °F - 37.4 °F 87% 30.02 in 3.0 mi Calm Calm - 0.02 in Rain Light Rain
10:54 AM 41.0 °F 39.0 °F 37.9 °F 89% 30.03 in 5.0 mi WSW 3.5 mph - 0.03 in Rain Light Rain
11:54 AM 42.1 °F 38.4 °F 39.0 °F 89% 30.00 in 6.0 mi SW 5.8 mph - 0.01 in   Overcast
12:54 PM 44.1 °F 40.1 °F 39.9 °F 85% 29.93 in 7.0 mi SSE 6.9 mph - 0.00 in   Overcast
1:54 PM 45.0 °F 38.5 °F 41.0 °F 86% 29.93 in 10.0 mi SSW 13.8 mph - N/A   Overcast
2:05 PM 44.6 °F 38.8 °F 41.0 °F 87% 29.90 in 10.0 mi South 11.5 mph - N/A   Overcast
2:35 PM 46.4 °F 42.9 °F 42.8 °F 87% 29.91 in 10.0 mi South 6.9 mph - N/A   Overcast
2:54 PM 46.0 °F 41.0 °F 41.0 °F 83% 29.92 in 10.0 mi SSW 10.4 mph - N/A   Overcast
3:49 PM 46.4 °F 42.9 °F 42.8 °F 87% 29.89 in 10.0 mi South 6.9 mph 16.1 mph N/A   Overcast
3:54 PM 46.9 °F - 43.0 °F 86% 29.89 in 10.0 mi South 9.2 mph - N/A   Overcast
4:54 PM 46.0 °F 41.0 °F 41.0 °F 83% 29.98 in 10.0 mi WNW 10.4 mph 16.1 mph N/A   Overcast
5:54 PM 46.0 °F 43.1 °F 42.1 °F 86% 29.97 in 10.0 mi West 5.8 mph - N/A   Overcast
6:54 PM 45.0 °F 40.6 °F 41.0 °F 86% 29.99 in 10.0 mi NW 8.1 mph - 0.00 in   Overcast
7:39 PM 44.6 °F 43.1 °F 41.0 °F 87% 30.00 in 10.0 mi West 3.5 mph - N/A   Overcast
7:54 PM 45.0 °F - 41.0 °F 86% 29.99 in 10.0 mi Calm Calm - N/A   Overcast
8:54 PM 45.0 °F 42.6 °F 41.0 °F 86% 30.01 in 4.0 mi West 4.6 mph - 0.06 in Rain Light Rain
9:44 PM 44.6 °F 43.1 °F 41.0 °F 87% 29.99 in 10.0 mi WSW 3.5 mph - 0.04 in Rain Light Rain
9:54 PM 45.0 °F 43.5 °F 42.1 °F 90% 30.01 in 8.0 mi WSW 3.5 mph - 0.05 in Rain Light Rain
10:54 PM 45.0 °F - 42.1 °F 90% 30.00 in 8.0 mi Calm Calm - 0.00 in   Overcast
11:54 PM 45.0 °F - 42.1 °F 90% 30.00 in 7.0 mi Calm Calm - N/A   Overcast